contact:dominique.lefevre@mio.osupytheas.fr, maurice.libes@osupytheas.fr, didier.mallarino@osupytheas.fr
Project:EMSO http://www.emso-fr.org/EMSO-France
Depth: 2436.0 m
Title:EMSO Ligure Ouest : Data MII capteur AQUADOPP
Date,Latitude,Longitude,X_East,Y_North,Z_Up,Amplitude_X,Amplitude_Y,Amplitude_Z,Batterie,SoundSpeed,Heading,Pitch,Roll,Pressure,TIS,Speed,Direction
, degrees North, degrees East, m.s-1, m.s-1,m.s-1, 1, 1, 1, Volt, m.s-1, degree, degree, degree, dbar, degree_C, m.s-1, degree
2022-01-26T00:04:03,42.805,6.029,-0.006,-0.002,-0.006,105.0,105.0,101.0,13.4,1505.2,325.8,-0.8,1.8,2470.483,13.28,0.006,251.6
2022-01-26T00:07:03,42.805,6.029,-0.041,0.002,-0.047,104.0,104.0,102.0,13.4,1505.2,327.2,-0.8,1.8,2470.474,13.28,0.041,272.8
2022-01-26T00:10:03,42.805,6.029,-0.031,0.007,-0.014,103.0,103.0,101.0,13.4,1505.2,329.6,-0.7,1.8,2470.47,13.29,0.031,282.7
2022-01-26T00:13:03,42.805,6.029,-0.04,0.019,-0.014,104.0,103.0,102.0,13.3,1505.2,326.1,-0.8,1.8,2470.509,13.29,0.044,295.4
2022-01-26T00:16:03,42.805,6.029,-0.024,0.0,-0.006,104.0,103.0,101.0,13.4,1505.2,328.0,-0.8,1.8,2470.494,13.29,0.024,270.0
2022-01-26T00:19:03,42.805,6.029,-0.001,0.013,0.039,103.0,103.0,102.0,13.3,1505.2,328.3,-0.8,1.8,2470.523,13.29,0.013,355.6
2022-01-26T00:22:03,42.805,6.029,-0.032,0.019,0.012,103.0,103.0,102.0,13.3,1505.2,330.5,-0.7,1.8,2470.534,13.29,0.037,300.7
2022-01-26T00:25:03,42.805,6.029,-0.029,0.012,-0.023,104.0,107.0,101.0,13.4,1505.2,327.3,-0.7,1.9,2470.496,13.29,0.031,292.5
2022-01-26T00:28:03,42.805,6.029,-0.041,0.026,-0.013,104.0,103.0,101.0,13.3,1505.2,328.6,-0.7,1.8,2470.525,13.29,0.048,302.4
2022-01-26T00:31:03,42.805,6.029,-0.032,0.029,0.011,103.0,103.0,101.0,13.4,1505.2,330.6,-0.8,1.8,2470.559,13.29,0.043,312.2
2022-01-26T00:34:03,42.805,6.029,-0.031,0.013,0.005,103.0,102.0,102.0,13.4,1505.2,326.3,-0.8,1.8,2470.561,13.29,0.033,292.7
2022-01-26T00:37:03,42.805,6.029,-0.018,-0.004,0.005,103.0,104.0,101.0,13.4,1505.2,325.8,-0.8,1.8,2470.561,13.29,0.018,257.5
2022-01-26T00:40:03,42.805,6.029,-0.038,0.02,0.012,103.0,103.0,101.0,13.4,1505.2,330.4,-0.7,1.9,2470.559,13.29,0.042,297.8
2022-01-26T00:43:03,42.805,6.029,-0.019,-0.003,0.026,103.0,103.0,101.0,13.4,1505.2,327.0,-0.7,1.8,2470.566,13.29,0.019,261.0
2022-01-26T00:46:03,42.805,6.029,-0.018,0.029,0.004,104.0,103.0,102.0,13.4,1505.2,326.7,-0.7,1.8,2470.55,13.29,0.034,328.2
2022-01-26T00:49:03,42.805,6.029,-0.025,0.024,0.006,104.0,103.0,102.0,13.4,1505.2,328.3,-0.8,1.8,2470.592,13.29,0.034,313.8
2022-01-26T00:52:03,42.805,6.029,-0.021,0.016,-0.025,104.0,104.0,101.0,13.4,1505.2,329.7,-0.7,1.8,2470.577,13.29,0.026,307.3
2022-01-26T00:55:03,42.805,6.029,-0.045,-0.004,-0.019,103.0,103.0,102.0,13.4,1505.2,327.1,-0.8,1.8,2470.596,13.29,0.045,264.9
2022-01-26T00:58:03,42.805,6.029,-0.012,0.022,0.001,104.0,104.0,101.0,13.3,1505.2,325.7,-0.7,1.9,2470.573,13.29,0.025,331.4
2022-01-26T01:04:03,42.805,6.029,-0.01,0.021,0.019,105.0,105.0,102.0,13.3,1505.2,330.9,-0.7,1.8,2470.572,13.29,0.023,334.5
2022-01-26T01:07:03,42.805,6.029,-0.019,-0.001,-0.051,104.0,104.0,101.0,13.4,1505.2,327.6,-0.7,1.8,2470.612,13.29,0.019,267.0
2022-01-26T01:10:03,42.805,6.029,-0.002,0.0,-0.027,103.0,102.0,102.0,13.4,1505.2,329.8,-0.8,1.8,2470.608,13.29,0.002,270.0
2022-01-26T01:13:03,42.805,6.029,-0.017,0.008,-0.011,103.0,102.0,102.0,13.4,1505.2,327.6,-0.7,1.8,2470.601,13.29,0.018,295.2
2022-01-26T01:16:03,42.805,6.029,-0.011,0.012,-0.006,102.0,103.0,102.0,13.4,1505.2,327.3,-0.8,1.8,2470.578,13.29,0.016,317.5
2022-01-26T01:19:03,42.805,6.029,-0.016,0.0,0.012,103.0,102.0,102.0,13.4,1505.2,326.1,-0.8,1.8,2470.611,13.29,0.016,270.0
2022-01-26T01:22:04,42.805,6.029,-0.034,-0.002,0.0,102.0,103.0,101.0,13.3,1505.2,327.9,-0.8,1.8,2470.606,13.29,0.034,266.6
2022-01-26T01:25:08,42.805,6.029,-0.011,0.022,0.002,103.0,103.0,101.0,13.4,1505.2,328.4,-0.7,1.8,2470.579,13.29,0.024,333.4
2022-01-26T01:28:03,42.805,6.029,-0.013,0.005,-0.008,103.0,103.0,102.0,13.4,1505.2,324.2,-0.8,1.8,2470.556,13.29,0.013,291.0
2022-01-26T01:31:03,42.805,6.029,-0.007,0.008,-0.012,103.0,103.0,101.0,13.4,1505.2,324.4,-0.7,1.8,2470.547,13.29,0.01,318.8
2022-01-26T01:34:03,42.805,6.029,-0.035,0.022,-0.015,102.0,103.0,102.0,13.4,1505.2,327.5,-0.7,1.8,2470.579,13.29,0.041,302.2
2022-01-26T01:37:03,42.805,6.029,-0.028,0.004,0.009,103.0,102.0,102.0,13.4,1505.2,326.3,-0.8,1.8,2470.58,13.29,0.028,278.1
2022-01-26T01:40:03,42.805,6.029,-0.017,-0.002,-0.021,103.0,103.0,101.0,13.4,1505.2,325.2,-0.7,1.8,2470.546,13.29,0.017,263.3
2022-01-26T01:43:03,42.805,6.029,-0.002,-0.008,-0.024,104.0,103.0,102.0,13.4,1505.2,326.0,-0.7,1.8,2470.518,13.29,0.008,194.0
2022-01-26T01:46:03,42.805,6.029,-0.004,0.0,-0.016,103.0,103.0,101.0,13.4,1505.2,328.1,-0.8,1.8,2470.508,13.29,0.004,270.0
2022-01-26T01:49:03,42.805,6.029,-0.02,-0.013,-0.009,102.0,104.0,102.0,13.4,1505.2,324.1,-0.8,1.8,2470.542,13.29,0.023,237.0
2022-01-26T01:52:03,42.805,6.029,0.002,0.003,0.001,104.0,103.0,101.0,13.4,1505.2,325.3,-0.7,1.8,2470.521,13.29,0.003,33.7
2022-01-26T01:55:03,42.805,6.029,-0.021,-0.012,-0.018,103.0,103.0,102.0,13.4,1505.2,327.0,-0.7,1.8,2470.475,13.29,0.024,240.3
2022-01-26T01:58:03,42.805,6.029,-0.014,0.0,-0.002,104.0,102.0,101.0,13.4,1505.2,324.2,-0.8,1.8,2470.513,13.29,0.014,270.0
2022-01-26T02:04:03,42.805,6.029,-0.02,0.005,-0.017,106.0,102.0,101.0,13.4,1505.2,329.5,-0.8,1.8,2470.463,13.29,0.02,284.0
2022-01-26T02:07:03,42.805,6.029,-0.009,-0.009,-0.004,103.0,102.0,102.0,13.3,1505.2,326.3,-0.8,1.8,2470.484,13.29,0.012,225.0
2022-01-26T02:10:03,42.805,6.029,-0.009,0.008,-0.025,103.0,104.0,100.0,13.4,1505.2,323.8,-0.8,1.8,2470.453,13.29,0.012,311.6
2022-01-26T02:13:04,42.805,6.029,-0.026,0.017,0.018,104.0,105.0,101.0,13.3,1505.2,327.3,-0.7,1.8,2470.486,13.29,0.031,303.2
2022-01-26T02:16:03,42.805,6.029,-0.009,-0.003,-0.014,101.0,104.0,101.0,13.3,1505.2,331.8,-0.8,1.8,2470.448,13.29,0.009,251.6
2022-01-26T02:19:07,42.805,6.029,-0.02,-0.018,0.008,103.0,104.0,102.0,13.3,1505.2,325.3,-0.8,1.8,2470.474,13.29,0.026,228.0
2022-01-26T02:22:03,42.805,6.029,-0.019,-0.011,-0.014,102.0,103.0,101.0,13.3,1505.2,331.0,-0.7,1.8,2470.494,13.29,0.021,239.9
2022-01-26T02:25:03,42.805,6.029,-0.033,-0.016,-0.025,102.0,103.0,101.0,13.3,1505.2,326.6,-0.8,1.8,2470.5,13.29,0.036,244.1
2022-01-26T02:28:03,42.805,6.029,-0.018,0.015,0.0,102.0,103.0,101.0,13.4,1505.2,325.2,-0.8,1.8,2470.506,13.29,0.023,309.8
2022-01-26T02:31:03,42.805,6.029,-0.021,0.001,0.004,104.0,103.0,100.0,13.3,1505.2,327.1,-0.8,1.8,2470.514,13.29,0.021,272.7
2022-01-26T02:34:03,42.805,6.029,0.0,-0.006,-0.002,104.0,101.0,101.0,13.4,1505.2,329.9,-0.7,1.8,2470.473,13.29,0.006,180.0
2022-01-26T02:37:03,42.805,6.029,-0.022,-0.017,-0.007,105.0,101.0,102.0,13.3,1505.2,325.7,-0.7,1.8,2470.492,13.29,0.027,232.3
2022-01-26T02:40:03,42.805,6.029,-0.002,-0.003,0.016,103.0,105.0,101.0,13.4,1505.2,324.3,-0.7,1.8,2470.526,13.29,0.003,213.7
2022-01-26T02:43:03,42.805,6.029,-0.012,-0.008,-0.008,103.0,102.0,102.0,13.4,1505.2,323.9,-0.8,1.8,2470.523,13.29,0.014,236.3
2022-01-26T02:46:03,42.805,6.029,0.003,0.0,-0.011,103.0,107.0,102.0,13.3,1505.2,324.6,-0.7,1.9,2470.541,13.29,0.003,90.0
2022-01-26T02:49:03,42.805,6.029,-0.028,-0.002,-0.016,103.0,105.0,102.0,13.4,1505.2,329.9,-0.8,1.8,2470.518,13.29,0.028,265.9
2022-01-26T02:52:03,42.805,6.029,-0.01,0.018,0.002,102.0,104.0,102.0,13.4,1505.2,329.8,-0.7,1.8,2470.529,13.29,0.02,330.9
2022-01-26T02:55:03,42.805,6.029,-0.003,0.018,-0.021,102.0,103.0,102.0,13.4,1505.2,332.3,-0.7,1.8,2470.547,13.29,0.018,350.5
2022-01-26T02:58:03,42.805,6.029,-0.008,-0.005,-0.014,104.0,103.0,102.0,13.4,1505.2,325.7,-0.7,1.8,2470.563,13.29,0.009,238.0
2022-01-26T03:04:03,42.805,6.029,-0.004,-0.014,-0.008,103.0,103.0,101.0,13.4,1505.2,330.3,-0.8,1.8,2470.56,13.29,0.014,195.9
2022-01-26T03:07:03,42.805,6.029,0.001,-0.009,-0.012,103.0,103.0,102.0,13.3,1505.2,324.5,-0.8,1.8,2470.535,13.29,0.009,173.7
2022-01-26T03:10:03,42.805,6.029,-0.009,-0.012,-0.016,102.0,101.0,102.0,13.3,1505.2,329.3,-0.8,1.8,2470.531,13.29,0.015,216.9
2022-01-26T03:13:08,42.805,6.029,-0.012,0.006,-0.005,104.0,103.0,101.0,13.4,1505.2,326.1,-0.8,1.8,2470.515,13.29,0.013,296.6
2022-01-26T03:16:07,42.805,6.029,-0.006,0.005,-0.022,103.0,103.0,103.0,13.4,1505.2,326.6,-0.8,1.8,2470.552,13.29,0.007,309.8
2022-01-26T03:19:03,42.805,6.029,-0.011,-0.007,-0.007,104.0,103.0,101.0,13.4,1505.2,327.6,-0.7,1.8,2470.529,13.29,0.013,237.5
2022-01-26T03:22:03,42.805,6.029,-0.008,-0.002,0.004,103.0,103.0,102.0,13.4,1505.2,329.3,-0.8,1.8,2470.489,13.29,0.008,256.0
2022-01-26T03:25:03,42.805,6.029,-0.005,-0.01,-0.022,103.0,103.0,101.0,13.4,1505.2,328.3,-0.8,1.8,2470.533,13.29,0.011,206.6
2022-01-26T03:28:03,42.805,6.029,-0.007,-0.004,-0.022,103.0,105.0,102.0,13.4,1505.2,329.7,-0.8,1.8,2470.548,13.29,0.008,240.3
2022-01-26T03:31:03,42.805,6.029,-0.012,0.003,0.005,102.0,102.0,102.0,13.4,1505.2,323.5,-0.8,1.8,2470.528,13.29,0.012,284.0
2022-01-26T03:34:03,42.805,6.029,-0.006,-0.006,-0.021,103.0,103.0,101.0,13.4,1505.2,331.1,-0.8,1.8,2470.547,13.29,0.008,225.0
2022-01-26T03:37:03,42.805,6.029,0.011,-0.018,0.016,104.0,102.0,103.0,13.4,1505.2,326.8,-0.7,1.8,2470.52,13.29,0.021,148.6
2022-01-26T03:40:03,42.805,6.029,-0.001,-0.024,-0.005,103.0,103.0,101.0,13.4,1505.2,328.4,-0.8,1.8,2470.544,13.29,0.024,182.4
2022-01-26T03:43:03,42.805,6.029,0.0,-0.011,0.002,103.0,103.0,100.0,13.4,1505.2,325.7,-0.7,1.8,2470.595,13.29,0.011,180.0
2022-01-26T03:46:03,42.805,6.029,-0.025,-0.008,-0.023,104.0,103.0,101.0,13.4,1505.2,329.6,-0.8,1.8,2470.569,13.29,0.026,252.3
2022-01-26T03:49:03,42.805,6.029,0.01,-0.027,-0.007,103.0,103.0,102.0,13.4,1505.2,325.8,-0.7,1.8,2470.587,13.29,0.028,159.7
2022-01-26T03:52:03,42.805,6.029,0.006,-0.015,-0.002,102.0,103.0,101.0,13.4,1505.2,328.5,-0.7,1.8,2470.567,13.29,0.016,158.2
2022-01-26T03:55:03,42.805,6.029,-0.003,-0.018,-0.024,103.0,103.0,102.0,13.3,1505.2,325.4,-0.7,1.8,2470.613,13.29,0.018,189.5
2022-01-26T03:58:03,42.805,6.029,-0.011,-0.015,-0.018,103.0,103.0,101.0,13.3,1505.2,328.2,-0.8,1.8,2470.55,13.29,0.018,216.3
2022-01-26T04:04:02,42.805,6.029,-0.003,-0.018,-0.008,103.0,102.0,102.0,13.4,1505.2,329.4,-0.8,1.9,2470.616,13.28,0.018,189.5
2022-01-26T04:07:03,42.805,6.029,-0.022,-0.008,-0.011,102.0,102.0,101.0,13.4,1505.2,330.4,-0.8,1.8,2470.558,13.28,0.023,250.0
2022-01-26T04:10:03,42.805,6.029,-0.003,-0.022,-0.013,103.0,103.0,101.0,13.4,1505.2,326.2,-0.7,1.8,2470.565,13.28,0.022,187.8
2022-01-26T04:13:03,42.805,6.029,0.011,-0.033,-0.027,103.0,104.0,102.0,13.4,1505.2,323.5,-0.8,1.8,2470.55,13.28,0.034,161.6
2022-01-26T04:16:03,42.805,6.029,-0.002,0.004,0.004,103.0,103.0,101.0,13.3,1505.2,324.8,-0.7,1.8,2470.566,13.28,0.004,333.4
2022-01-26T04:19:03,42.805,6.029,-0.023,-0.01,-0.04,102.0,103.0,102.0,13.4,1505.2,326.6,-0.8,1.8,2470.571,13.28,0.025,246.5
2022-01-26T04:22:03,42.805,6.029,-0.022,-0.025,-0.021,105.0,103.0,102.0,13.3,1505.2,328.4,-0.7,1.8,2470.526,13.28,0.033,221.3
2022-01-26T04:25:03,42.805,6.029,-0.004,-0.013,0.0,103.0,104.0,102.0,13.3,1505.2,325.0,-0.8,1.8,2470.547,13.28,0.013,197.1
2022-01-26T04:28:03,42.805,6.029,-0.003,0.003,0.013,103.0,103.0,102.0,13.3,1505.2,328.7,-0.8,1.8,2470.602,13.28,0.004,315.0
2022-01-26T04:31:03,42.805,6.029,-0.012,-0.038,-0.023,105.0,102.0,101.0,13.3,1505.2,325.2,-0.8,1.8,2470.555,13.28,0.039,197.5
2022-01-26T04:34:03,42.805,6.029,-0.027,-0.033,-0.045,103.0,104.0,102.0,13.3,1505.2,327.1,-0.7,1.8,2470.552,13.28,0.042,219.3
2022-01-26T04:37:03,42.805,6.029,-0.009,-0.01,0.011,102.0,102.0,103.0,13.3,1505.2,327.9,-0.8,1.8,2470.56,13.29,0.013,222.0
2022-01-26T04:40:03,42.805,6.029,0.002,-0.013,0.004,104.0,104.0,102.0,13.4,1505.2,325.2,-0.8,1.8,2470.547,13.29,0.013,171.3
2022-01-26T04:43:03,42.805,6.029,-0.007,-0.02,0.015,103.0,103.0,102.0,13.4,1505.2,327.1,-0.7,1.8,2470.531,13.29,0.021,199.3
2022-01-26T04:46:03,42.805,6.029,-0.018,-0.012,-0.012,103.0,105.0,101.0,13.4,1505.2,326.6,-0.8,1.8,2470.535,13.28,0.021,236.3
2022-01-26T04:49:03,42.805,6.029,-0.014,0.006,-0.001,103.0,104.0,102.0,13.4,1505.2,329.9,-0.7,1.8,2470.533,13.28,0.015,293.2
2022-01-26T04:52:03,42.805,6.029,-0.014,-0.015,-0.001,103.0,103.0,102.0,13.4,1505.2,330.7,-0.7,1.8,2470.559,13.29,0.02,223.0
2022-01-26T04:55:03,42.805,6.029,-0.03,-0.023,-0.006,103.0,104.0,102.0,13.4,1505.2,326.8,-0.8,1.9,2470.562,13.29,0.037,232.5
2022-01-26T04:58:03,42.805,6.029,-0.03,-0.023,-0.027,104.0,103.0,101.0,13.4,1505.2,324.4,-0.8,1.8,2470.577,13.29,0.037,232.5
2022-01-26T05:04:03,42.805,6.029,-0.016,-0.012,-0.028,103.0,102.0,102.0,13.4,1505.2,327.5,-0.7,1.8,2470.633,13.28,0.02,233.1
2022-01-26T05:07:03,42.805,6.029,-0.014,-0.023,-0.049,103.0,102.0,102.0,13.4,1505.2,326.3,-0.8,1.8,2470.621,13.28,0.026,211.3
2022-01-26T05:10:03,42.805,6.029,-0.002,-0.01,-0.01,102.0,102.0,101.0,13.4,1505.2,325.7,-0.7,1.8,2470.598,13.28,0.01,191.3
2022-01-26T05:13:03,42.805,6.029,0.003,-0.025,-0.014,102.0,102.0,102.0,13.3,1505.2,326.8,-0.8,1.8,2470.566,13.28,0.025,173.2
2022-01-26T05:16:03,42.805,6.029,-0.004,-0.017,-0.022,103.0,103.0,101.0,13.4,1505.2,327.8,-0.7,1.8,2470.595,13.28,0.017,193.2
2022-01-26T05:19:03,42.805,6.029,-0.007,-0.027,-0.017,103.0,101.0,101.0,13.3,1505.2,329.6,-0.7,1.8,2470.573,13.28,0.027,194.5
2022-01-26T05:22:03,42.805,6.029,-0.008,-0.019,-0.014,102.0,103.0,102.0,13.4,1505.2,324.4,-0.7,1.8,2470.607,13.28,0.02,202.8
2022-01-26T05:25:03,42.805,6.029,-0.04,-0.02,-0.008,103.0,102.0,103.0,13.4,1505.2,328.3,-0.8,1.8,2470.674,13.28,0.044,243.4
2022-01-26T05:28:03,42.805,6.029,0.004,-0.026,-0.015,103.0,103.0,102.0,13.4,1505.2,329.0,-0.8,1.8,2470.619,13.28,0.026,171.3
2022-01-26T05:31:03,42.805,6.029,-0.012,-0.031,0.016,104.0,103.0,101.0,13.4,1505.2,327.0,-0.8,1.8,2470.595,13.29,0.033,201.2
2022-01-26T05:34:03,42.805,6.029,-0.016,-0.029,-0.05,103.0,104.0,101.0,13.3,1505.2,326.3,-0.7,1.8,2470.679,13.29,0.033,208.9
2022-01-26T05:37:03,42.805,6.029,-0.011,-0.022,-0.031,105.0,102.0,102.0,13.4,1505.2,328.0,-0.8,1.8,2470.655,13.29,0.024,206.6
2022-01-26T05:40:03,42.805,6.029,-0.006,-0.023,-0.004,104.0,102.0,101.0,13.3,1505.2,327.4,-0.7,1.8,2470.635,13.29,0.023,194.6
2022-01-26T05:43:03,42.805,6.029,-0.009,-0.02,-0.017,103.0,102.0,101.0,13.3,1505.2,327.2,-0.8,1.8,2470.662,13.29,0.021,204.2
2022-01-26T05:46:03,42.805,6.029,-0.011,-0.021,-0.018,103.0,103.0,101.0,13.4,1505.2,329.0,-0.8,1.8,2470.662,13.29,0.023,207.6
2022-01-26T05:49:03,42.805,6.029,-0.014,-0.023,-0.02,102.0,105.0,101.0,13.4,1505.2,327.5,-0.8,1.8,2470.668,13.29,0.026,211.3
2022-01-26T05:52:03,42.805,6.029,-0.024,-0.014,-0.03,104.0,104.0,102.0,13.4,1505.2,325.7,-0.8,1.8,2470.64,13.29,0.027,239.7
2022-01-26T05:55:03,42.805,6.029,-0.002,-0.029,-0.036,104.0,103.0,102.0,13.4,1505.2,325.7,-0.7,1.8,2470.656,13.29,0.029,183.9
2022-01-26T05:58:03,42.805,6.029,-0.011,-0.039,-0.011,104.0,103.0,102.0,13.4,1505.2,327.0,-0.8,1.8,2470.639,13.29,0.04,195.7
2022-01-26T06:04:03,42.805,6.029,-0.035,-0.006,-0.03,104.0,102.0,102.0,13.3,1505.2,328.9,-0.8,1.8,2470.719,13.28,0.035,260.3
2022-01-26T06:07:03,42.805,6.029,-0.003,-0.021,-0.011,104.0,102.0,102.0,13.4,1505.2,325.8,-0.7,1.8,2470.698,13.28,0.021,188.1
2022-01-26T06:10:03,42.805,6.029,-0.011,-0.005,-0.012,104.0,102.0,102.0,13.4,1505.2,329.4,-0.7,1.8,2470.635,13.28,0.012,245.6
2022-01-26T06:13:03,42.805,6.029,-0.026,-0.018,-0.011,103.0,101.0,103.0,13.4,1505.2,329.3,-0.8,1.8,2470.65,13.29,0.031,235.3
2022-01-26T06:16:03,42.805,6.029,-0.02,-0.018,-0.048,105.0,103.0,101.0,13.3,1505.2,327.6,-0.8,1.9,2470.7,13.29,0.026,228.0
2022-01-26T06:19:03,42.805,6.029,-0.008,-0.015,0.003,105.0,103.0,102.0,13.4,1505.2,329.8,-0.8,1.8,2470.683,13.28,0.017,208.1
2022-01-26T06:22:03,42.805,6.029,-0.022,-0.029,-0.018,104.0,103.0,101.0,13.3,1505.2,329.9,-0.7,1.8,2470.668,13.28,0.036,217.2
2022-01-26T06:25:03,42.805,6.029,-0.01,0.003,-0.006,103.0,104.0,102.0,13.4,1505.2,328.0,-0.8,1.8,2470.671,13.29,0.01,286.7
2022-01-26T06:28:03,42.805,6.029,-0.008,-0.034,-0.036,104.0,103.0,102.0,13.4,1505.2,323.6,-0.8,1.8,2470.707,13.29,0.034,193.2
2022-01-26T06:31:03,42.805,6.029,-0.021,-0.019,-0.018,104.0,103.0,102.0,13.4,1505.2,324.1,-0.8,1.9,2470.677,13.29,0.028,227.9
2022-01-26T06:34:08,42.805,6.029,-0.02,-0.009,-0.04,104.0,103.0,102.0,13.4,1505.2,325.9,-0.7,1.8,2470.688,13.29,0.021,245.8
2022-01-26T06:37:03,42.805,6.029,-0.002,-0.048,-0.031,103.0,104.0,102.0,13.4,1505.2,325.5,-0.8,1.8,2470.699,13.29,0.048,182.4
2022-01-26T06:40:03,42.805,6.029,-0.019,-0.036,-0.015,104.0,104.0,104.0,13.3,1505.2,331.1,-0.8,1.8,2470.684,13.29,0.04,207.8
2022-01-26T06:43:03,42.805,6.029,-0.016,-0.015,0.018,103.0,104.0,102.0,13.4,1505.2,327.9,-0.7,1.9,2470.656,13.29,0.021,226.9
2022-01-26T06:46:03,42.805,6.029,-0.011,-0.034,-0.032,104.0,103.0,104.0,13.4,1505.2,323.9,-0.7,1.8,2470.713,13.29,0.035,197.9
2022-01-26T06:49:03,42.805,6.029,-0.033,-0.011,-0.013,104.0,105.0,103.0,13.4,1505.2,325.0,-0.7,1.8,2470.685,13.29,0.034,251.6
2022-01-26T06:52:03,42.805,6.029,-0.017,-0.013,0.0,106.0,104.0,108.0,13.4,1505.2,329.9,-0.8,1.8,2470.703,13.29,0.021,232.6
2022-01-26T06:55:03,42.805,6.029,0.002,-0.024,-0.002,104.0,103.0,102.0,13.3,1505.2,328.3,-0.7,1.8,2470.67,13.29,0.024,175.2
2022-01-26T06:58:03,42.805,6.029,-0.022,-0.006,-0.018,103.0,104.0,103.0,13.3,1505.2,326.8,-0.8,1.8,2470.711,13.29,0.022,254.7
2022-01-26T07:04:03,42.805,6.029,-0.022,-0.005,-0.03,104.0,102.0,102.0,13.4,1505.2,331.2,-0.8,1.8,2470.711,13.28,0.022,257.2
2022-01-26T07:07:03,42.805,6.029,-0.041,-0.024,0.002,103.0,103.0,102.0,13.4,1505.2,326.1,-0.8,1.8,2470.674,13.28,0.047,239.7
2022-01-26T07:10:03,42.805,6.029,-0.005,-0.017,-0.022,103.0,103.0,101.0,13.3,1505.2,326.2,-0.8,1.8,2470.699,13.28,0.017,196.4
2022-01-26T07:13:03,42.805,6.029,-0.031,-0.012,-0.006,105.0,103.0,102.0,13.3,1505.2,327.1,-0.8,1.8,2470.692,13.28,0.033,248.8
2022-01-26T07:16:03,42.805,6.029,-0.026,-0.027,-0.019,104.0,103.0,102.0,13.3,1505.2,324.4,-0.8,1.8,2470.707,13.28,0.037,223.9
2022-01-26T07:19:03,42.805,6.029,-0.015,-0.01,-0.019,104.0,104.0,103.0,13.4,1505.2,323.6,-0.8,1.8,2470.71,13.28,0.018,236.3
2022-01-26T07:22:03,42.805,6.029,-0.034,-0.02,-0.012,104.0,104.0,101.0,13.4,1505.2,330.6,-0.8,1.8,2470.668,13.28,0.039,239.5
2022-01-26T07:25:03,42.805,6.029,-0.03,-0.033,-0.051,104.0,103.0,103.0,13.4,1505.2,326.4,-0.8,1.9,2470.676,13.28,0.044,222.3
2022-01-26T07:28:03,42.805,6.029,-0.008,-0.02,0.004,104.0,104.0,102.0,13.4,1505.2,324.2,-0.7,1.8,2470.655,13.28,0.021,201.8
2022-01-26T07:31:03,42.805,6.029,-0.003,-0.012,-0.012,103.0,104.0,101.0,13.4,1505.2,327.3,-0.8,1.8,2470.659,13.28,0.012,194.0
2022-01-26T07:34:03,42.805,6.029,-0.03,-0.022,-0.036,104.0,103.0,102.0,13.3,1505.2,330.8,-0.7,1.8,2470.673,13.28,0.037,233.7
2022-01-26T07:37:03,42.805,6.029,-0.044,-0.018,-0.045,103.0,103.0,102.0,13.4,1505.2,328.6,-0.7,1.8,2470.684,13.28,0.047,247.8
2022-01-26T07:40:03,42.805,6.029,-0.026,-0.017,-0.015,103.0,103.0,102.0,13.4,1505.2,329.9,-0.8,1.8,2470.711,13.28,0.031,236.8
2022-01-26T07:43:03,42.805,6.029,-0.027,-0.005,-0.001,104.0,104.0,102.0,13.4,1505.2,329.0,-0.7,1.8,2470.653,13.28,0.027,259.5
2022-01-26T07:46:03,42.805,6.029,-0.036,-0.029,-0.02,103.0,102.0,103.0,13.4,1505.2,326.4,-0.7,1.8,2470.653,13.28,0.046,231.1
2022-01-26T07:49:06,42.805,6.029,-0.037,-0.009,-0.008,103.0,105.0,102.0,13.4,1505.2,324.6,-0.7,1.8,2470.705,13.28,0.038,256.3
2022-01-26T07:52:03,42.805,6.029,-0.027,-0.01,-0.053,104.0,103.0,102.0,13.4,1505.2,330.0,-0.8,1.8,2470.684,13.28,0.028,249.7
2022-01-26T07:55:03,42.805,6.029,-0.038,-0.019,-0.035,104.0,103.0,101.0,13.3,1505.2,324.6,-0.8,1.8,2470.697,13.28,0.042,243.4
2022-01-26T07:58:03,42.805,6.029,-0.03,-0.015,-0.025,105.0,103.0,102.0,13.4,1505.2,330.2,-0.8,1.8,2470.71,13.28,0.033,243.4
2022-01-26T08:04:03,42.805,6.029,-0.039,-0.019,-0.001,104.0,103.0,102.0,13.4,1505.2,329.6,-0.7,1.8,2470.698,13.28,0.043,244.0
2022-01-26T08:07:03,42.805,6.029,-0.029,-0.029,-0.012,103.0,104.0,101.0,13.3,1505.2,323.9,-0.8,1.8,2470.683,13.28,0.041,225.0
2022-01-26T08:10:03,42.805,6.029,-0.013,-0.023,-0.022,103.0,103.0,100.0,13.3,1505.2,323.0,-0.7,1.8,2470.731,13.28,0.026,209.5
2022-01-26T08:13:03,42.805,6.029,-0.037,-0.021,-0.06,103.0,103.0,101.0,13.3,1505.2,323.9,-0.7,1.8,2470.676,13.28,0.042,240.4
2022-01-26T08:16:03,42.805,6.029,-0.041,-0.028,-0.024,104.0,103.0,102.0,13.3,1505.2,324.0,-0.8,1.8,2470.728,13.28,0.049,235.7
2022-01-26T08:19:03,42.805,6.029,-0.035,-0.018,-0.031,105.0,103.0,101.0,13.3,1505.2,330.1,-0.8,1.8,2470.691,13.28,0.039,242.8
2022-01-26T08:22:03,42.805,6.029,-0.017,-0.004,-0.056,104.0,103.0,101.0,13.4,1505.2,327.6,-0.7,1.8,2470.691,13.28,0.017,256.8
2022-01-26T08:25:03,42.805,6.029,-0.032,-0.029,-0.013,103.0,104.0,102.0,13.4,1505.2,324.2,-0.8,1.8,2470.687,13.28,0.043,227.8
2022-01-26T08:28:03,42.805,6.029,-0.038,-0.018,-0.017,103.0,104.0,101.0,13.4,1505.2,325.2,-0.8,1.8,2470.693,13.28,0.042,244.7
2022-01-26T08:31:03,42.805,6.029,-0.033,-0.019,-0.046,103.0,104.0,102.0,13.4,1505.2,324.2,-0.7,1.9,2470.699,13.28,0.038,240.1
2022-01-26T08:34:03,42.805,6.029,-0.024,-0.011,-0.008,104.0,102.0,102.0,13.4,1505.2,326.8,-0.8,1.8,2470.666,13.28,0.026,245.4
2022-01-26T08:37:03,42.805,6.029,-0.023,-0.001,-0.013,104.0,103.0,102.0,13.4,1505.2,329.6,-0.7,1.8,2470.654,13.28,0.023,267.5
2022-01-26T08:40:03,42.805,6.029,-0.036,-0.03,-0.031,104.0,103.0,102.0,13.3,1505.2,331.3,-0.7,1.8,2470.693,13.28,0.046,230.2
2022-01-26T08:43:03,42.805,6.029,-0.02,0.0,-0.026,104.0,104.0,102.0,13.4,1505.2,325.2,-0.8,1.8,2470.697,13.28,0.02,270.0
2022-01-26T08:46:03,42.805,6.029,-0.019,0.004,-0.006,104.0,104.0,102.0,13.4,1505.2,327.3,-0.8,1.8,2470.689,13.28,0.019,281.9
2022-01-26T08:49:03,42.805,6.029,-0.024,-0.014,-0.005,104.0,103.0,102.0,13.4,1505.2,330.5,-0.7,1.8,2470.703,13.28,0.027,239.7
2022-01-26T08:52:03,42.805,6.029,-0.046,0.0,-0.041,104.0,104.0,103.0,13.4,1505.2,327.9,-0.8,1.8,2470.691,13.28,0.046,270.0
2022-01-26T08:55:03,42.805,6.029,-0.038,-0.028,-0.03,103.0,103.0,101.0,13.3,1505.2,329.6,-0.7,1.8,2470.659,13.28,0.047,233.6
2022-01-26T08:58:03,42.805,6.029,-0.039,-0.009,-0.022,104.0,103.0,101.0,13.4,1505.2,327.7,-0.7,1.8,2470.674,13.28,0.04,257.0
2022-01-26T09:04:03,42.805,6.029,-0.041,0.001,-0.024,103.0,103.0,101.0,13.4,1505.2,326.9,-0.8,1.9,2470.713,13.28,0.041,271.4
2022-01-26T09:07:03,42.805,6.029,-0.019,-0.017,0.0,105.0,102.0,102.0,13.4,1505.2,329.5,-0.8,1.8,2470.694,13.28,0.025,228.2
2022-01-26T09:10:03,42.805,6.029,-0.036,-0.026,-0.036,105.0,103.0,102.0,13.4,1505.2,331.0,-0.7,1.8,2470.708,13.28,0.044,234.2
2022-01-26T09:13:03,42.805,6.029,-0.03,-0.005,-0.035,103.0,102.0,102.0,13.4,1505.2,329.9,-0.8,1.8,2470.708,13.28,0.03,260.5
2022-01-26T09:16:03,42.805,6.029,-0.037,-0.018,-0.024,104.0,103.0,102.0,13.4,1505.2,327.4,-0.7,1.8,2470.715,13.28,0.041,244.1
2022-01-26T09:19:03,42.805,6.029,-0.045,-0.008,-0.026,103.0,103.0,102.0,13.4,1505.2,324.2,-0.8,1.8,2470.696,13.28,0.045,259.9
2022-01-26T09:22:03,42.805,6.029,-0.036,-0.016,-0.01,103.0,103.0,102.0,13.4,1505.2,331.0,-0.7,1.8,2470.702,13.28,0.039,246.0
2022-01-26T09:25:03,42.805,6.029,-0.033,-0.005,0.009,103.0,104.0,101.0,13.4,1505.2,329.2,-0.8,1.8,2470.72,13.28,0.033,261.4
2022-01-26T09:28:03,42.805,6.029,-0.028,-0.003,0.0,105.0,104.0,102.0,13.4,1505.2,329.5,-0.8,1.8,2470.7,13.28,0.028,263.9
2022-01-26T09:31:03,42.805,6.029,-0.033,-0.007,-0.027,104.0,102.0,103.0,13.4,1505.2,331.0,-0.8,1.8,2470.72,13.28,0.033,258.0
2022-01-26T09:34:03,42.805,6.029,-0.032,-0.012,-0.007,103.0,103.0,103.0,13.4,1505.2,326.8,-0.8,1.8,2470.647,13.28,0.034,249.4
2022-01-26T09:37:03,42.805,6.029,-0.019,0.003,-0.027,104.0,104.0,102.0,13.3,1505.2,325.2,-0.7,1.8,2470.698,13.28,0.019,279.0
2022-01-26T09:40:03,42.805,6.029,-0.044,-0.018,-0.012,103.0,105.0,102.0,13.4,1505.2,327.7,-0.7,1.8,2470.711,13.28,0.047,247.8
2022-01-26T09:43:03,42.805,6.029,-0.026,0.008,-0.024,104.0,102.0,102.0,13.3,1505.2,331.6,-0.7,1.8,2470.706,13.28,0.027,287.1
2022-01-26T09:46:03,42.805,6.029,-0.044,-0.003,-0.036,104.0,104.0,101.0,13.3,1505.2,329.7,-0.7,1.8,2470.68,13.28,0.044,266.1
2022-01-26T09:49:03,42.805,6.029,-0.021,-0.023,-0.029,103.0,104.0,103.0,13.4,1505.2,323.9,-0.7,1.8,2470.723,13.28,0.031,222.4
2022-01-26T09:52:03,42.805,6.029,-0.041,-0.007,0.017,104.0,102.0,103.0,13.4,1505.2,325.8,-0.8,1.9,2470.736,13.28,0.041,260.3